Regional Weather Roundup
Issued by NWS

Home | Current Version | Previous Version | Text Only | Print | Product List | Glossary Off
Versions: 1 2 3 4 5 6 7 8 9 10 11 12 13 14 15 16 17 18 19 20 21 22 23 24 25 26 27 28 29 30 31 32 33 34 35 36 37 38 39 40 41 42 43 44 45 46 47 48 49 50

803
ASUS45 KSLC 241610
RWRUT

UTAH REGIONAL WEATHER ROUNDUP
NATIONAL WEATHER SERVICE SALT LAKE CITY UT
1000 AM MDT MON APR 24 2017

UTZ001>011-023>025-241700-

NORTHERN UTAH

CITY           SKY/WX    TMP DP  RH WIND       PRES   REMARKS
BRIGHAM CITY   CLOUDY    53  41  63 NW5       29.69R
DUGWAY         PTSUNNY   53  41  63 VRB2      29.69F
HILL AFB       LGT RAIN  48  36  61 E5        29.70S
LOGAN          CLOUDY    50  41  71 SW5       29.68F
OGDEN          CLOUDY    51  38  60 S9        29.69S
SALT LAKE CITY LGT RAIN  55  39  54 NW6       29.69S
TOOELE VALLEY  CLOUDY    52  39  62 S9        29.70R
WENDOVER       PTSUNNY   55  26  32 NW13      29.70S
HEBER CITY     CLOUDY    43  37  81 CALM      29.72F
WEST JORDAN    CLOUDY    55  47  73 S3        29.70S

$$

UTZ011>015-024>027-241700-

CENTRAL/NORTHEAST UTAH

CITY           SKY/WX    TMP DP  RH WIND       PRES   REMARKS
PROVO AIRPORT  CLOUDY    52  40  63 CALM      29.71F
MOAB/CANYONLAN CLOUDY    60  34  37 SE5       29.72F
DELTA          CLOUDY    48  37  66 S6        29.71S
PRICE          CLOUDY    50  35  56 SE7       29.76F
RICHFIELD      MOSUNNY   48  41  76 CALM      29.76F
ROOSEVELT      CLOUDY    50  36  57 CALM      29.80R
VERNAL         CLOUDY    50  36  58 CALM      29.77F

$$

UTZ013>016-019>022-027-241700-

SOUTHERN UTAH

CITY           SKY/WX    TMP DP  RH WIND       PRES   REMARKS
BRYCE CANYON   CLOUDY    50  27  40 SE13      29.86F
CEDAR CITY     CLOUDY    58  31  35 SW9       29.76F
MILFORD        CLOUDY    50  36  58 S17       29.74R
ST GEORGE      CLOUDY    62  27  26 S3        29.74R
HANKSVILLE     CLOUDY    55  32  41 CALM      29.76F
KANAB          SUNNY     61  28  29 SW8       29.84S
BLANDING       CLOUDY    57  24  27 S6        29.90S

$$

REGIONAL REPORTS     COLORADO/ARIZONA

CITY           SKY/WX    TMP DP  RH WIND       PRES   REMARKS
CRAIG, CO      MOSUNNY   50  39  66 E10       29.78F
GRAND JUNCTION CLOUDY    61  33  35 CALM      29.76F
RIFLE, CO      CLOUDY    55  37  50 VRB3      29.78F
MONTROSE, CO   CLOUDY    60  27  28 CALM      29.81F
CORTEZ, CO     CLOUDY    57  27  31 CALM      29.85F
COLORADO CITY    N/A     61  27  27 CALM      29.83S
PAGE, AZ       CLOUDY    62  30  29 N7        29.76S
GRAND CANYON   MOSUNNY   58  26  29 SW21G29   29.90F
KINGMAN, AZ    PTSUNNY   69  28  21 SW21      29.78F
FLAGSTAFF, AZ  MOSUNNY   57  20  23 SW20      29.94R

$$

REGIONAL REPORTS    NEVADA/IDAHO/WYOMING

CITY           SKY/WX    TMP DP  RH WIND       PRES   REMARKS
LAS VEGAS, NV  PTSUNNY   70  28  21 S8        29.70R
ELY, NY        CLOUDY    50  21  32 W9        29.77F
ELKO, NV       LGT RAIN  41  35  79 W17       29.80R
POCATELLO, ID  LGT RAIN  47  38  71 NW9       29.71F
BURLEY, ID     LGT RAIN  45  40  82 S7        29.69S
EVANSTON, WY   CLOUDY    41  33  73 SW8       29.73F
ROCK SPRINGS,  CLOUDY    45  35  68 CALM      29.74F
KEMMERER, WY     N/A     37  30  75 CALM      29.75F

$$




USA.gov is the U.S. government's official web portal to all federal, state and local government web resources and services.